Regional Weather Roundup
Issued by NWS

Home | Current Version | Previous Version | Graphics & Text | Print | Product List | Glossary Off
Versions: 1 2 3 4 5 6 7 8 9 10 11 12 13 14 15 16 17 18 19 20 21 22 23 24 25 26 27 28 29 30 31 32 33 34 35 36 37 38 39 40 41 42 43 44 45 46 47 48 49 50

009
ASUS43 KMKX 250100
RWRWI

WISCONSIN REGIONAL WEATHER ROUNDUP
NATIONAL WEATHER SERVICE MILWAUKEE/SULLIVAN WI
700 PM CST FRI NOV 24 2017

NOTE: "FAIR" INDICATES FEW OR NO CLOUDS BELOW 12,000 FEET WITH NO
SIGNIFICANT WEATHER AND/OR OBSTRUCTIONS TO VISIBILITY.

WIZ001-002-006>008-014>016-023>028-250200-
NORTHWEST WISCONSIN

CITY           SKY/WX    TMP DP  RH WIND       PRES   REMARKS
SUPERIOR ARPT  PTCLDY    40  36  84 W10       29.52R WCI  34
ASHLAND        CLOUDY    42  37  82 W10G18    29.50R
HAYWARD        CLOUDY    42  37  82 W5        29.52R
SIREN          PTCLDY    40  38  93 W6        29.55R
CUMBERLAND     PTCLDY    39  37  93 W10       29.53R WCI  32
RICE LAKE      PTCLDY    41  40  95 W7        29.55R
CHETEK         PTCLDY    42  41  97 W6        29.52R
LADYSMITH      PTCLDY    40  39  95 W8        29.52R WCI  35
EAU CLAIRE     NOT AVBL
MENOMONIE      CLEAR     45  41  87 W10       29.56R
NEW RICHMOND   CLEAR     41  40  95 W10       29.57R
OSCEOLA        CLEAR     43  40  88 W10       29.59R
$$

WIZ003>005-009-010-017-018-250200-
NORTH CENTRAL WISCONSIN

CITY           SKY/WX    TMP DP  RH WIND       PRES   REMARKS
MANITOWISH WTR CLOUDY    40  40 100 W7        29.42R
ARBOR VITAE    CLOUDY    42  40  95 W6        29.43R
WOODRUFF       CLOUDY    42  40  95 W6        29.43R
RHINELANDER    CLOUDY    43  42  97 NW7       29.43R
EAGLE RIVER    CLOUDY    41  41  99 W8        29.41R
LAND O LAKES   DRIZZLE   41  40  97 W5        29.41R
PHILLIPS       PTCLDY    41  41 100 W3        29.46R
TOMAHAWK       CLOUDY    43  40  91 NW8       29.45R FOG
MEDFORD        LGT RAIN  44  42  92 NW13      29.45R
MERRILL        LGT RAIN  46  43  91 N12       29.44R
$$

WIZ029-030-035-036-043>047-250200-
CENTRAL WISCONSIN

CITY           SKY/WX    TMP DP  RH WIND       PRES   REMARKS
WAUSAU         LGT RAIN  47  45  93 NW10      29.43R
MOSINEE        LGT RAIN  46  45  93 W15       29.45R
MARSHFIELD     LGT RAIN  47  44  90 NW13      29.46R
STEVENS POINT  LGT RAIN  49  43  80 W8G20     29.44R
WAUPACA        CLOUDY    58  40  49 W8        29.42R
WAUTOMA        LGT RAIN  54  42  64 W12       29.45R
WISC RAPIDS    LGT RAIN  51  45  79 W10       29.47R
CAMP DOUGLAS   CLOUDY    52  47  83 W9        29.48R
$$

WIZ011>013-019>022-031-037>040-048>050-250200-
NORTHEAST WISCONSIN

CITY           SKY/WX    TMP DP  RH WIND       PRES   REMARKS
ANTIGO         LGT RAIN  46  42  86 W12G20    29.41R
SHAWANO        RAIN      56  42  61 W10       29.40R
OCONTO         CLOUDY    55  40  58 W7        29.36R
STURGEON BAY   LGT RAIN  53  40  61 W7        29.37R
GREEN BAY      LGT RAIN  55  43  63 W12       29.39R
MANITOWOC      CLOUDY    56  40  55 W8        29.40R
APPLETON       CLOUDY    55  37  50 W8        29.40R
CLINTONVILLE   LGT RAIN  55  39  54 W10G18    29.40R
OSHKOSH        CLOUDY    56  40  55 W5        29.41R
$$

WIZ032>034-041-042-053>061-250200-
SOUTHWEST WISCONSIN

CITY           SKY/WX    TMP DP  RH WIND       PRES   REMARKS
LA CROSSE      LGT RAIN  53  47  79 NW15      29.52R
SPARTA         LGT RAIN  52  46  80 W6        29.50R
VIROQUA        CLOUDY    51  46  82 W9        29.51R
BOSCOBEL       LGT RAIN  57  41  55 CALM      29.50R
PRAIRIE DU CHI CLOUDY    56  39  52 CALM      29.50R
PLATTEVILLE    PTCLDY    53  42  67 W8        29.50R
$$

WIZ056-057-062-063-064-067-068-250200-
SOUTH CENTRAL WISCONSIN

CITY           SKY/WX    TMP DP  RH WIND       PRES   REMARKS
REEDSBURG      CLOUDY    55  41  57 W7        29.47R
BARABOO/DELLS  CLOUDY    56  38  52 NW8       29.46R
LONE ROCK      CLOUDY    59  42  53 W12       29.49R
MINERAL POINT  MOCLDY    54  41  62 W8        29.49R
MADISON        PTCLDY    56  40  55 NW7       29.45R
MIDDLETON      CLEAR     56  40  54 NW10      29.45R
WATERTOWN      CLEAR     53  40  60 W5        29.42R
MONROE         CLOUDY    55  39  54 W10       29.46R
JANESVILLE     CLEAR     55  39  54 W8        29.45R
$$

WIZ051-052-058>065-066-070>072-250200-
SOUTHEAST WISCONSIN

CITY           SKY/WX    TMP DP  RH WIND       PRES   REMARKS
MILWAUKEE      PTCLDY    57  40  52 SW15G24   29.42R
WAUKESHA       CLEAR     52  37  58 SW10      29.42R
MILWAUKEE/TIMM CLEAR     55  36  47 SW9       29.41S
RACINE         CLEAR     57  40  52 SW15G21   29.44R
BURLINGTON     CLEAR     56  45  66 SW10      29.43R
KENOSHA        CLEAR     57  39  51 SW18G29   29.43R
FOND DU LAC    MOCLDY    55  38  52 W9        29.42R
SHEBOYGAN      CLOUDY    55  40  56 W7        29.40R
WEST BEND      CLOUDY    54  36  50 SW6       29.41R
JUNEAU         PTCLDY    54  39  56 CALM      29.43R
$$

LSZ147-162-250200-
LAKE SUPERIOR

STATION/POSITION TIME  TEMP    WIND        PRES    WAVE
                       AIR SEA DIR/SP/G            HT/PER
                 (UTC) (F)     (DEG/KT/KT) (MB)    (FT/S)
DEVILS ISLAND    0000   43     290/ 19/ 21  996.9R
SAXON HARBOR     0040   43     250/  8/ 14  998.0R
$$

LMZ867-665-643>646-250200-
LAKE MICHIGAN

STATION/POSITION TIME  TEMP    WIND        PRES    WAVE
                       AIR SEA DIR/SP/G            HT/PER
                 (UTC) (F)     (DEG/KT/KT) (MB)    (FT/S)
N MID LAKE BUOY  2350   48 47  210/ 19/ 23  993.3R  12/ 9
NORTHPORT PIER   0040   46      CALM  /  6  992.9F
KEWAUNEE LAKESHO 0030   48     160/  2/  3  993.6R
SHEBOYGAN LAKESH 0000   51     210/  7/  7  995.0R
PORT WASHINGTON  0040   56     230/  4/  5  996.6R
MILWAUKEE LAKESH 0040   58     240/ 10/ 12   N/A
S MID LAKE BUOY  2350   51 47  210/ 21/ 25  996.9R   6/ 6
KENOSHA   LAKESH 0000   60     220/ 16/ 23  996.6
$$

TC  - TEMPERATURE IN CELSIUS
VSB - VISIBILITY IN STATUTE MILES
WCI - WIND CHILL INDEX
HX  - HEAT INDEX





USA.gov is the U.S. government's official web portal to all federal, state and local government web resources and services.